Palacios, TX

3:09 AM CST on January 23, 2018 (GMT -0600)
Palacios Municipal

Weather History for KPSX - January, 2014

Change the Weather History Date:

Sunday, January 19, 2014

  Actual Average Record
Temperature  
Mean Temperature 59 °F -  
Max Temperature 72 °F 60 °F 82 °F (1950)
Min Temperature 46 °F 44 °F 23 °F (1984)
Degree Days  
Heating Degree Days 6    
Growing Degree Days 9 (Base 50)    
Moisture  
Dew Point 45 °F    
Average Humidity 77    
Maximum Humidity 100    
Minimum Humidity 28    
Precipitation  
Precipitation 0.00 in - - ()
Sea Level Pressure  
Sea Level Pressure 30.21 in    
Wind  
Wind Speed 6 mph (ENE)    
Max Wind Speed 15 mph    
Max Gust Speed 16 mph    
Visibility 6 miles    
Events Fog    
Averages and records for this station are not official NWS values.
T = Trace of Precipitation, MM = Missing Value Source: NWS Daily Summary

Daily Weather History Graph

Daily Weather History Graph

Search for Another Location

Airport or City:

Trip Planner

Search our weather history database for the weather conditions in past years. The results will help you decide how hot, cold, wet, or windy it might be!

Date:

Astronomy

Jan. 19, 2014 Rise Set
Actual Time 7:18 AM CST 5:53 PM CST
Civil Twilight 6:53 AM CST 6:18 PM CST
Nautical Twilight 6:24 AM CST 6:47 PM CST
Astronomical Twilight 5:55 AM CST 7:15 PM CST
Moon 9:11 PM CST (1/19) 9:07 AM CST (1/19)
Length of Visible Light 11h 25m
Length of Day
10h 35m
Waning Gibbous, 89% of the Moon is Illuminated
Jan 19
Waning Gibbous
Jan 23
Last Quarter
Jan 30
New
Feb 6
First Quarter
Feb 14
Full

Hourly Weather History & Observations

Time (CST) Temp. Dew Point Humidity Pressure Visibility Wind Dir Wind Speed Gust Speed Precip Events Conditions
12:53 AM 46.9 °F 46.9 °F 100% 30.18 in 1.0 mi NNW 3.5 mph - N/A   Mist
1:04 AM 46.9 °F 46.9 °F 100% 30.18 in 0.2 mi NNW 3.5 mph - N/A Fog Fog
1:53 AM 48.0 °F 46.9 °F 96% 30.17 in 0.5 mi West 3.5 mph - N/A Fog Fog
2:53 AM 50.0 °F 48.9 °F 96% 30.17 in 0.2 mi WSW 4.6 mph - N/A Fog Fog
3:53 AM 46.9 °F 46.9 °F 100% 30.18 in 0.5 mi WNW 3.5 mph - N/A Fog Fog
4:53 AM 46.9 °F 46.0 °F 97% 30.19 in 0.2 mi Calm Calm - N/A Fog Fog
5:53 AM 46.9 °F 46.9 °F 100% 30.21 in 0.2 mi Calm Calm - N/A Fog Fog
6:53 AM 48.0 °F 48.0 °F 100% 30.23 in 0.2 mi NW 4.6 mph - N/A Fog Fog
7:53 AM 48.9 °F 48.0 °F 97% 30.27 in 0.2 mi North 5.8 mph - N/A Fog Fog
8:36 AM 50.0 °F 48.9 °F 96% 30.28 in 2.0 mi North 8.1 mph - N/A   Mostly Cloudy
8:43 AM 51.1 °F 50.0 °F 96% 30.28 in 9.0 mi North 10.4 mph - N/A   Scattered Clouds
8:53 AM 52.0 °F 51.1 °F 97% 30.29 in 10.0 mi North 10.4 mph - N/A   Partly Cloudy
9:53 AM 57.9 °F 48.9 °F 72% 30.30 in 10.0 mi NNE 15.0 mph - N/A   Clear
10:53 AM 64.0 °F 45.0 °F 50% 30.30 in 10.0 mi NE 12.7 mph - N/A   Clear
11:53 AM 68.0 °F 42.1 °F 39% 30.28 in 10.0 mi NE 8.1 mph - N/A   Clear
12:53 PM 70.0 °F 37.9 °F 31% 30.24 in 10.0 mi North 5.8 mph - N/A   Clear
1:53 PM 72.0 °F 37.0 °F 28% 30.20 in 10.0 mi Variable 5.8 mph - N/A   Clear
2:53 PM 68.0 °F 45.0 °F 43% 30.19 in 10.0 mi South 11.5 mph 16.1 mph N/A   Clear
3:53 PM 66.0 °F 37.0 °F 34% 30.19 in 10.0 mi SE 12.7 mph - N/A   Clear
4:53 PM 64.0 °F 36.0 °F 35% 30.19 in 10.0 mi SSE 11.5 mph - N/A   Clear
5:53 PM 55.9 °F 39.0 °F 53% 30.19 in 10.0 mi SE 6.9 mph - N/A   Clear
6:53 PM 54.0 °F 44.1 °F 69% 30.19 in 10.0 mi SE 4.6 mph - N/A   Clear
7:53 PM 52.0 °F 46.0 °F 80% 30.19 in 10.0 mi SE 3.5 mph - N/A   Clear
8:53 PM 48.9 °F 44.1 °F 83% 30.19 in 10.0 mi ESE 3.5 mph - N/A   Clear
9:53 PM 48.9 °F 46.0 °F 90% 30.17 in 10.0 mi SE 6.9 mph - N/A   Clear
10:53 PM 46.9 °F 46.0 °F 97% 30.16 in 10.0 mi SE 5.8 mph - N/A   Clear
11:53 PM 53.1 °F 52.0 °F 96% 30.15 in 6.0 mi SSE 6.9 mph - N/A   Clear